Regional Weather Roundup
Issued by NWS

Home | Current Version | Previous Version | Text Only | Print | Product List | Glossary Off
Versions: 1 2 3 4 5 6 7 8 9 10 11 12 13 14 15 16 17 18 19 20 21 22 23 24 25 26 27 28 29 30 31 32 33 34 35 36 37 38 39 40 41 42 43 44 45 46 47 48 49 50

000
ASUS43 KBIS 180202
RWRND

NORTH DAKOTA REGIONAL WEATHER ROUNDUP
NATIONAL WEATHER SERVICE BISMARCK ND
800 PM CST WED JAN 17 2018

NOTE: "FAIR" INDICATES FEW OR NO CLOUDS BELOW 12,000 FEET WITH NO
SIGNIFICANT WEATHER AND/OR OBSTRUCTIONS TO VISIBILITY.


NDZ001>003-009>011-017-180300-
NORTHWEST NORTH DAKOTA

CITY           SKY/WX    TMP DP  RH WIND       PRES   REMARKS
WILLISTON      CLEAR     26  19  74 SW10      29.99S WCI  16
MINOT          CLOUDY    36  23  59 SW18G28   29.91S
MINOT AFB      CLOUDY    33  23  66 W23       29.88F
$$

NDZ018>021-031>035-040>046-180300-
SOUTHWEST NORTH DAKOTA

CITY           SKY/WX    TMP DP  RH WIND       PRES   REMARKS
BISMARCK       PTCLDY    30  21  69 SW6       30.03F
DICKINSON      MOCLDY    30  20  66 W16       30.00S WCI  19
GARRISON         N/A     26  19  74 W12       29.96F WCI  16
HETTINGER ARPT PTCLDY    22  16  78 CALM      30.07F
$$

NDZ004>008-012>016-024-026-027-054-180300-
NORTHEAST NORTH DAKOTA

CITY           SKY/WX    TMP DP  RH WIND       PRES   REMARKS
GRAND FORKS    FAIR      30  23  75 SW8       29.88S
GRND FRKS AFB  FAIR      34  22  62 W13       29.87F
DEVILS LAKE    FAIR      29  22  75 W18       29.89F WCI  16
$$

NDZ022-023-025-028>030-036>039-047>053-180300-
SOUTHEAST NORTH DAKOTA

CITY           SKY/WX    TMP DP  RH WIND       PRES   REMARKS
FARGO          FAIR      32  23  69 SW18      29.96F
JAMESTOWN      CLEAR     33  23  66 W17       29.95F
$$




USA.gov is the U.S. government's official web portal to all federal, state and local government web resources and services.